Weather History for KDAN - October, 2012

Change the Weather History Date:

Friday, October 12, 2012

  Actual Average Record
Temperature  
Mean Temperature 57 °F 61 °F  
Max Temperature 73 °F 71 °F 88 °F (1954)
Min Temperature 41 °F 50 °F 29 °F (1964)
Degree Days  
Heating Degree Days 8 5  
Month to date heating degree days 71 51  
Since 1 July heating degree days 93 79  
Cooling Degree Days 0 1  
Month to date cooling degree days 29 19  
Year to date cooling degree days 1592 1422  
Growing Degree Days 7 (Base 50)    
Moisture  
Dew Point 43 °F    
Average Humidity 63    
Maximum Humidity 96    
Minimum Humidity 29    
Precipitation  
Precipitation 0.00 in 0.11 in 0.85 in (1990)
Month to date precipitation 1.16 1.36  
Year to date precipitation 25.13 35.61  
Snow  
Snow 0.00 in - - ()
Month to date snowfall 0.0  
Since 1 July snowfall 0.0  
Since 1 September snowfall 0.0  
Snow Depth 0.00 in    
Sea Level Pressure  
Sea Level Pressure 30.22 in    
Wind  
Wind Speed 5 mph (WNW)    
Max Wind Speed 15 mph    
Max Gust Speed 21 mph    
Visibility 10 miles    
Events      
T = Trace of Precipitation, MM = Missing Value Source: NWS Daily Summary

Daily Weather History Graph

Daily Weather History Graph

Search for Another Location

Airport or City:

Trip Planner

Search our weather history database for the weather conditions in past years. The results will help you decide how hot, cold, wet, or windy it might be!

Date:

Astronomy

Oct. 12, 2012 Rise Set
Actual Time 7:22 AM EDT 6:44 PM EDT
Civil Twilight 6:56 AM EDT 7:10 PM EDT
Nautical Twilight 6:26 AM EDT 7:40 PM EDT
Astronomical Twilight 5:56 AM EDT 8:10 PM EDT
Moon 4:08 AM EDT (10/12) 4:49 PM EDT (10/12)
Length of Visible Light 12h 13m
Length of Day
11h 22m
Waning Crescent, 11% of the Moon is Illuminated
Oct 12
Waning Crescent
Oct 15
New
Oct 21
First Quarter
Oct 29
Full
Nov 6
Last Quarter

Hourly Weather History & Observations

Time (EDT) Temp. Windchill Dew Point Humidity Pressure Visibility Wind Dir Wind Speed Gust Speed Precip Events Conditions
12:53 AM 46.0 °F - 43.0 °F 89% 30.21 in 10.0 mi Calm Calm - N/A   Clear
2:53 AM 43.0 °F - 41.0 °F 93% 30.18 in 10.0 mi Calm Calm - N/A   Clear
3:53 AM 42.1 °F 39.2 °F 39.9 °F 92% 30.17 in 10.0 mi SW 4.6 mph - N/A   Clear
4:53 AM 42.1 °F - 39.9 °F 92% 30.17 in 10.0 mi Calm Calm - N/A   Clear
5:53 AM 42.1 °F 38.4 °F 39.0 °F 89% 30.18 in 10.0 mi WSW 5.8 mph - N/A   Clear
6:53 AM 41.0 °F 39.0 °F 39.0 °F 93% 30.19 in 10.0 mi SW 3.5 mph - N/A   Clear
7:53 AM 43.0 °F - 39.9 °F 89% 30.20 in 9.0 mi Calm Calm - N/A   Clear
8:53 AM 50.0 °F - 46.0 °F 86% 30.22 in 10.0 mi WSW 4.6 mph - N/A   Clear
9:53 AM 55.0 °F - 48.0 °F 77% 30.22 in 10.0 mi SW 3.5 mph - N/A   Clear
10:53 AM 64.0 °F - 45.0 °F 50% 30.22 in 10.0 mi West 4.6 mph - N/A   Clear
12:53 PM 71.1 °F - 42.1 °F 35% 30.20 in 10.0 mi NW 10.4 mph - N/A   Clear
1:53 PM 72.0 °F - 42.1 °F 34% 30.18 in 10.0 mi NNW 12.7 mph - N/A   Clear
2:53 PM 73.0 °F - 41.0 °F 31% 30.18 in 10.0 mi NNE 9.2 mph - N/A   Clear
4:53 PM 73.0 °F - 39.9 °F 30% 30.19 in 10.0 mi NW 6.9 mph - N/A   Clear
6:53 PM 57.0 °F - 46.9 °F 69% 30.22 in 10.0 mi Calm Calm - N/A   Clear
7:53 PM 53.1 °F - 45.0 °F 74% 30.25 in 10.0 mi Calm Calm - N/A   Clear
8:53 PM 52.0 °F - 45.0 °F 77% 30.27 in 10.0 mi Calm Calm - N/A   Clear
10:53 PM 54.0 °F - 44.1 °F 69% 30.35 in 10.0 mi ENE 9.2 mph - N/A   Clear
11:53 PM 53.1 °F - 41.0 °F 64% 30.38 in 10.0 mi ENE 10.4 mph - N/A   Clear